EW6780 Weather Reports


Display with metric or nautical units.
time (UTC)temp
F
wind
direction
speed
MPH
gust
MPH
rain 1hr
in
rain 24hr
in
rain mn
in
humidity
%
barometer
mb
20260504184504 72 245 1.0 7.0 0.00 0.02 0.00 34 1010.1
20260504184008 72 291 2.0 6.0 0.00 0.02 0.00 34 1010.1
20260504183504 72 234 3.0 9.0 0.00 0.02 0.00 33 1010.2
20260504183004 72 293 1.0 7.0 0.00 0.02 0.00 34 1010.3
20260504182513 72 293 0.0 9.0 0.00 0.02 0.00 34 1010.3
20260504182004 72 314 0.0 6.0 0.00 0.02 0.00 34 1010.5
20260504181504 72 201 0.0 11.0 0.00 0.02 0.00 34 1010.4
20260504181004 72 179 1.0 3.0 0.00 0.02 0.00 34 1010.6
20260504180507 71 291 0.0 11.0 0.00 0.02 0.00 34 1010.7
20260504180004 71 87 1.0 9.0 0.00 0.02 0.00 35 1010.8
20260504175507 71 164 0.0 8.0 0.00 0.02 0.00 35 1010.7
20260504175004 71 267 2.0 9.0 0.00 0.02 0.00 35 1010.9
20260504174504 71 299 1.0 5.0 0.00 0.02 0.00 34 1011.0
20260504174004 71 304 5.0 11.0 0.00 0.02 0.00 34 1011.0
20260504173511 71 237 1.0 5.0 0.00 0.02 0.00 37 1011.0
20260504173004 70 280 1.0 8.0 0.00 0.02 0.00 35 1011.1
20260504172508 70 108 1.0 6.0 0.00 0.02 0.00 36 1011.0
20260504172007 70 229 2.0 10.0 0.00 0.02 0.00 36 1011.1
20260504171507 70 205 1.0 7.0 0.00 0.02 0.00 35 1011.2
20260504171004 69 277 0.0 7.0 0.00 0.02 0.00 36 1011.3
20260504170510 69 201 1.0 8.0 0.00 0.02 0.00 36 1011.4
20260504151004 66 293 0.0 5.0 0.00 0.01 0.00 39 1012.7
20260504150504 66 280 1.0 3.0 0.00 0.01 0.00 42 1012.6
20260504141007 63 288 1.0 7.0 0.00 0.01 0.00 47 1012.9
20260504140504 63 286 1.0 5.0 0.00 0.01 0.00 47 1013.0
20260504130505 57 229 0.0 6.0 0.00 0.01 0.00 58 1013.7
20260504110504 47 291 3.0 3.0 0.00 0.01 0.00 66 1014.2
20260504100504 46 301 0.0 3.0 0.00 0.01 0.00 61 1014.1
20260504082007 47 268 0.0 3.0 0.00 0.01 0.00 59 1013.6
20260504081508 47 207 0.0 0.0 0.00 0.01 0.00 59 1013.6
20260504081007 48 207 0.0 0.0 0.00 0.01 0.00 58 1013.6
20260504080507 48 206 0.0 1.0 0.00 0.01 0.00 58 1013.5
20260504070105 49 279 0.0 2.0 0.00 0.01 0.00 55 1013.4
20260504050610 49 286 0.0 3.0 0.00 0.01 0.00 54 1013.1
20260504050107 49 266 1.0 2.0 0.00 0.01 0.00 54 1013.0
20260504045608 49 203 0.0 0.0 0.00 0.01 0.00 53 1013.0
20260504045105 50 194 0.0 0.0 0.00 0.01 0.00 53 1013.0
20260504044614 50 194 0.0 3.0 0.00 0.01 0.00 53 1013.0
20260504044107 50 239 0.0 2.0 0.00 0.01 0.00 53 1013.0
20260504043604 50 268 0.0 2.0 0.00 0.01 0.00 52 1013.0
20260504043107 50 268 0.0 2.0 0.00 0.01 0.00 52 1013.0
20260504042607 50 277 0.0 0.0 0.00 0.01 0.00 52 1012.9
20260504042107 50 277 0.0 0.0 0.00 0.01 0.00 52 1012.8
20260504041607 50 277 0.0 1.0 0.00 0.01 0.00 51 1012.7
20260504041113 50 277 0.0 1.0 0.00 0.01 0.00 51 1012.8
20260504040613 50 279 0.0 2.0 0.00 0.01 0.00 51 1012.7
20260504040104 51 279 0.0 1.0 0.00 0.01 0.00 51 1012.7
20260504035610 51 262 0.0 1.0 0.00 0.01 0.00 50 1012.6
20260504035107 51 262 0.0 2.0 0.00 0.01 0.00 50 1012.7
20260504034605 51 252 0.0 1.0 0.00 0.01 0.00 50 1012.6
20260504034104 51 244 0.0 0.0 0.00 0.01 0.00 49 1012.6
20260504033607 51 244 0.0 0.0 0.00 0.01 0.00 49 1012.6
20260504033104 51 242 0.0 2.0 0.00 0.01 0.00 49 1012.6
20260504032604 51 240 0.0 1.0 0.00 0.01 0.00 49 1012.5
20260504032110 51 286 0.0 3.0 0.00 0.01 0.00 49 1012.4
20260504031605 51 293 0.0 2.0 0.00 0.01 0.00 48 1012.4
20260504031113 51 274 0.0 0.0 0.00 0.01 0.00 48 1012.4
20260504030604 51 274 0.0 2.0 0.00 0.01 0.00 48 1012.4
20260504030107 51 293 0.0 0.0 0.00 0.01 0.00 48 1012.4
20260504025604 51 293 0.0 0.0 0.00 0.01 0.00 48 1012.4
20260504025104 52 293 0.0 0.0 0.00 0.01 0.00 47 1012.4
20260504024604 52 293 0.0 0.0 0.00 0.01 0.00 47 1012.4
20260504024107 52 293 0.0 0.0 0.00 0.01 0.00 46 1012.5
20260504023607 52 293 0.0 0.0 0.00 0.01 0.00 46 1012.4
20260504023107 52 293 0.0 0.0 0.00 0.01 0.00 46 1012.4
20260504022604 52 293 0.0 0.0 0.00 0.01 0.00 46 1012.4
20260504022107 52 293 0.0 0.0 0.00 0.01 0.00 45 1012.4
20260504021605 53 293 0.0 0.0 0.00 0.01 0.00 45 1012.4
20260504021110 53 293 0.0 0.0 0.01 0.01 0.00 44 1012.4
20260504020604 53 293 0.0 1.0 0.01 0.01 0.00 44 1012.4
20260504020104 53 295 0.0 0.0 0.01 0.01 0.00 44 1012.4
20260504015608 53 295 0.0 0.0 0.01 0.01 0.00 44 1012.4
20260504015107 53 295 0.0 0.0 0.01 0.01 0.00 44 1012.4
20260504014607 53 295 0.0 0.0 0.01 0.01 0.00 43 1012.3
20260504014108 53 295 0.0 0.0 0.01 0.01 0.00 43 1012.3
20260504013604 53 295 0.0 0.0 0.01 0.01 0.00 43 1012.2
20260504013104 53 295 0.0 0.0 0.01 0.01 0.00 43 1012.1
20260504012611 53 295 0.0 0.0 0.01 0.01 0.00 43 1012.0
20260504012110 54 295 0.0 0.0 0.01 0.01 0.00 43 1012.0
20260504011607 54 295 0.0 0.0 0.01 0.01 0.00 42 1012.0
20260504011104 54 295 0.0 0.0 0.00 0.00 0.00 43 1011.9
20260504010604 54 295 0.0 0.0 0.00 0.00 0.00 41 1011.9
20260504010105 55 295 0.0 0.0 0.00 0.00 0.00 41 1011.9
20260504005607 55 295 0.0 0.0 0.00 0.00 0.00 40 1011.8
20260504005107 55 295 0.0 0.0 0.00 0.00 0.00 40 1011.7
20260504004604 55 295 0.0 0.0 0.00 0.00 0.00 39 1011.6
20260504004110 55 295 0.0 0.0 0.00 0.00 0.00 38 1011.6
20260504003605 56 295 0.0 0.0 0.00 0.00 0.00 38 1011.6
20260504003110 56 295 0.0 0.0 0.00 0.00 0.00 38 1011.5
20260504002607 56 295 0.0 0.0 0.00 0.00 0.00 37 1011.4
20260504002107 56 295 0.0 0.0 0.00 0.00 0.00 37 1011.3
20260504001610 57 295 0.0 0.0 0.00 0.00 0.00 36 1011.2
20260504001104 57 295 0.0 0.0 0.00 0.00 0.00 36 1011.1
20260504000610 57 295 0.0 0.0 0.00 0.00 0.00 35 1011.0
20260504000108 58 295 0.0 0.0 0.00 0.00 0.00 35 1011.0
20260503235604 58 295 0.0 0.0 0.00 0.00 0.00 34 1011.0
20260503235104 58 295 0.0 0.0 0.00 0.00 0.00 33 1010.9
20260503234610 59 295 0.0 1.0 0.00 0.00 0.00 33 1010.9
20260503234104 59 284 0.0 1.0 0.00 0.00 0.00 33 1010.8
20260503233604 59 281 0.0 0.0 0.00 0.00 0.00 32 1010.8
20260503233105 59 202 0.0 2.0 0.00 0.00 0.00 32 1010.7
20260503232607 60 293 0.0 2.0 0.00 0.00 0.00 31 1010.7
20260503232110 60 283 0.0 2.0 0.00 0.00 0.00 31 1010.7
20260503231610 60 288 0.0 5.0 0.00 0.00 0.00 30 1010.6
20260503231105 60 291 0.0 4.0 0.00 0.00 0.00 30 1010.6
20260503230607 60 306 2.0 2.0 0.00 0.00 0.00 29 1010.5
20260503230110 60 292 0.0 3.0 0.00 0.00 0.00 30 1010.4
20260503225604 60 319 1.0 11.0 0.00 0.00 0.00 29 1010.4
20260503225107 60 323 3.0 5.0 0.00 0.00 0.00 29 1010.4
20260503224607 60 297 3.0 4.0 0.00 0.00 0.00 29 1010.3
20260503224110 60 266 0.0 4.0 0.00 0.00 0.00 29 1010.4
20260503223610 60 273 0.0 6.0 0.00 0.00 0.00 30 1010.4
20260503223104 61 281 2.0 7.0 0.00 0.00 0.00 28 1010.4
20260503222604 61 259 1.0 7.0 0.00 0.00 0.00 29 1010.3
20260503222110 61 307 2.0 10.0 0.00 0.00 0.00 29 1010.3
20260503221604 61 304 5.0 8.0 0.00 0.00 0.00 28 1010.2
20260503221104 61 281 5.0 5.0 0.00 0.00 0.00 29 1010.3
20260503220605 61 294 0.0 9.0 0.00 0.00 0.00 28 1010.2
20260503220107 61 306 2.0 8.0 0.00 0.00 0.00 28 1010.3
20260503215606 60 274 0.0 10.0 0.00 0.00 0.00 28 1010.3
20260503215104 60 280 2.0 6.0 0.00 0.00 0.00 29 1010.3
20260503214608 60 283 0.0 9.0 0.00 0.00 0.00 28 1010.3
20260503214105 60 304 2.0 9.0 0.00 0.00 0.00 29 1010.3
20260503213613 60 307 1.0 6.0 0.00 0.00 0.00 28 1010.3
20260503213103 60 268 0.0 17.0 0.00 0.00 0.00 28 1010.3
20260503212607 60 297 7.0 9.0 0.00 0.00 0.00 29 1010.3
20260503212105 60 288 2.0 11.0 0.00 0.00 0.00 29 1010.3
20260503211613 60 306 3.0 10.0 0.00 0.00 0.00 29 1010.3
20260503211113 60 270 8.0 10.0 0.00 0.00 0.00 29 1010.2
20260503210604 60 304 3.0 7.0 0.00 0.00 0.00 29 1010.2
20260503210110 60 287 0.0 7.0 0.00 0.00 0.00 29 1010.3
20260503205604 60 310 0.0 10.0 0.00 0.00 0.00 29 1010.2
20260503205107 60 299 4.0 9.0 0.00 0.00 0.00 29 1010.1
20260503204604 60 313 1.0 16.0 0.00 0.00 0.00 30 1010.2
20260503204103 60 296 5.0 16.0 0.00 0.00 0.00 30 1010.3
20260503203604 60 291 2.0 7.0 0.00 0.00 0.00 29 1010.2
20260503203105 60 294 0.0 5.0 0.00 0.00 0.00 29 1010.2
20260503202604 60 305 1.0 11.0 0.00 0.00 0.00 30 1010.3
20260503202107 60 283 3.0 7.0 0.00 0.00 0.00 30 1010.3
20260503201606 59 299 3.0 10.0 0.00 0.00 0.00 31 1010.4
20260503201104 60 281 4.0 6.0 0.00 0.00 0.00 31 1010.4
20260503200607 60 299 9.0 10.0 0.00 0.00 0.00 30 1010.5
20260503200113 59 312 0.0 8.0 0.00 0.00 0.00 31 1010.4
20260503195604 59 279 0.0 15.0 0.00 0.00 0.00 31 1010.7
20260503195107 59 306 9.0 15.0 0.00 0.00 0.00 31 1010.6
20260503194604 59 295 4.0 9.0 0.00 0.00 0.00 30 1010.8
20260503194104 59 323 0.0 10.0 0.00 0.00 0.00 31 1010.8
20260503193607 59 289 7.0 15.0 0.00 0.00 0.00 30 1010.8
20260503193107 59 281 1.0 11.0 0.00 0.00 0.00 32 1010.7
20260503192607 58 304 0.0 10.0 0.00 0.00 0.00 32 1010.9
20260503192108 58 297 12.0 14.0 0.00 0.00 0.00 32 1010.8
20260503191604 58 246 3.0 13.0 0.00 0.00 0.00 32 1010.9
20260503191108 58 309 5.0 9.0 0.00 0.00 0.00 33 1010.9
20260503190608 57 306 3.0 4.0 0.00 0.00 0.00 34 1011.0
20260503190105 58 295 2.0 9.0 0.00 0.00 0.00 33 1011.0
20260503185603 58 284 1.0 9.0 0.00 0.00 0.00 34 1011.1
20260503185113 58 297 5.0 12.0 0.00 0.00 0.00 32 1011.1